TEMELIN Weather Reports


time (UTC)temp
F
wind
direction
speed
knots
gust
knots
rain 1hr
in
rain 24hr
in
rain mn
in
humidity
%
barometer
mb
20260506042030 52 260 4.3 0.0 0.00 0.00 0.00 93
20260506031822 52 240 4.3 0.0 0.00 0.00 0.00 93
20260506021820 52 220 1.7 0.0 0.00 0.00 0.00 93
20260506011920 54 240 4.3 0.0 0.00 0.00 0.00 93
20260506001818 54 250 6.1 0.0 0.00 0.00 0.00 93
20260505231818 55 10 4.3 0.0 0.00 0.00 0.00 93
20260505221816 57 290 12.2 0.0 0.00 0.00 0.00 87
20260505211851 57 290 13.9 0.0 0.00 0.00 0.00 82
20260505201835 64 270 6.1 0.0 0.00 0.00 0.00 59
20260505191852 64 40 4.3 0.0 0.00 0.00 0.00 59
20260505181835 68 60 7.8 0.0 0.00 0.00 0.00 52
20260505171818 70 100 4.3 0.0 0.00 0.00 0.00 43
20260505161917 72 110 7.8 0.0 0.00 0.00 0.00 43
20260505151818 68 120 13.9 0.0 0.00 0.00 0.00 52
20260505121819 75 140 6.1 0.0 0.00 0.00 0.00 29
20260505111818 73 240 1.7 0.0 0.00 0.00 0.00 38
20260505101819 72 240 4.3 0.0 0.00 0.00 0.00 37
20260505091818 70 230 1.7 0.0 0.00 0.00 0.00 43
20260505081819 66 210 1.7 0.0 0.00 0.00 0.00 52
20260505071818 64 210 4.3 0.0 0.00 0.00 0.00 48
20260505061821 61 80 1.7 0.0 0.00 0.00 0.00 59
20260505051819 57 80 4.3 0.0 0.00 0.00 0.00 76